Mackinac Island, MI

12:12 AM EDT on June 25, 2017 (GMT -0400)
Mackinac Island

Weather History for KMCD - July, 2013

Change the Weather History Date:

Friday, July 19, 2013

  Actual Average Record
Temperature  
Mean Temperature 72 °F -  
Max Temperature 79 °F 71 °F 86 °F (1977)
Min Temperature 65 °F 56 °F 42 °F (2000)
Cooling Degree Days 7    
Growing Degree Days 22 (Base 50)    
Moisture  
Dew Point 66 °F    
Average Humidity 81    
Maximum Humidity 93    
Minimum Humidity 58    
Precipitation  
Precipitation 0.95 in - - ()
Sea Level Pressure  
Sea Level Pressure 29.69 in    
Wind  
Wind Speed 13 mph (WSW)    
Max Wind Speed 23 mph    
Max Gust Speed 38 mph    
Visibility 10 miles    
Events Rain    
Averages and records for this station are not official NWS values.
T = Trace of Precipitation, MM = Missing Value Source: NWS Daily Summary

Daily Weather History Graph

Daily Weather History Graph

Search for Another Location

Airport or City:

Trip Planner

Search our weather history database for the weather conditions in past years. The results will help you decide how hot, cold, wet, or windy it might be!

Date:

Astronomy

Jul. 19, 2013 Rise Set
Actual Time 6:07 AM EDT 9:21 PM EDT
Civil Twilight 5:30 AM EDT 9:58 PM EDT
Nautical Twilight 4:43 AM EDT 10:44 PM EDT
Astronomical Twilight 3:44 AM EDT 11:43 PM EDT
Moon 6:23 PM EDT (7/19) 2:48 AM EDT (7/19)
Length of Visible Light 16h 27m
Length of Day
15h 14m
Waxing Gibbous, 86% of the Moon is Illuminated
Jul 19
Waxing Gibbous
Jul 22
Full
Jul 29
Last Quarter
Aug 6
New
Aug 14
First Quarter

Hourly Weather History & Observations

Time (EDT) Temp. Dew Point Humidity Pressure Visibility Wind Dir Wind Speed Gust Speed Precip Events Conditions
12:15 AM 78.1 °F 69.8 °F 76% 29.76 in 10.0 mi WSW 20.7 mph 31.1 mph N/A   Overcast
12:36 AM 76.8 °F 69.8 °F 79% 29.76 in 10.0 mi WSW 13.8 mph 23.0 mph N/A   Mostly Cloudy
12:56 AM 76.3 °F 69.8 °F 80% 29.75 in 10.0 mi WSW 13.8 mph 21.9 mph N/A   Overcast
1:15 AM 78.8 °F 69.4 °F 73% 29.74 in 10.0 mi WSW 17.3 mph 31.1 mph N/A   Overcast
1:36 AM 79.2 °F 69.3 °F 72% 29.74 in 10.0 mi WSW 20.7 mph 36.8 mph N/A   Overcast
1:56 AM 78.1 °F 69.1 °F 74% 29.74 in 10.0 mi WSW 19.6 mph 32.2 mph N/A   Overcast
2:15 AM 73.2 °F 65.5 °F 77% 29.78 in 10.0 mi North 23.0 mph 38.0 mph N/A   Overcast
2:36 AM 70.7 °F 66.4 °F 86% 29.77 in 10.0 mi NNE 16.1 mph - N/A Rain Light Rain
2:56 AM 69.3 °F 66.7 °F 92% 29.77 in 10.0 mi North 8.1 mph - 0.01 in Rain Light Rain
3:15 AM 69.1 °F 67.1 °F 93% 29.75 in 10.0 mi NE 11.5 mph - N/A Rain Light Rain
3:36 AM 69.1 °F 66.4 °F 91% 29.74 in 10.0 mi ENE 5.8 mph - N/A   Overcast
3:56 AM 69.3 °F 66.2 °F 90% 29.73 in 10.0 mi ESE 6.9 mph - N/A   Overcast
4:15 AM 69.6 °F 65.3 °F 86% 29.72 in 10.0 mi SE 10.4 mph - N/A   Mostly Cloudy
4:36 AM 69.3 °F 66.7 °F 92% 29.70 in 10.0 mi SSE 9.2 mph - N/A   Scattered Clouds
4:55 AM 69.8 °F 66.4 °F 89% 29.69 in 10.0 mi SSE 9.2 mph - N/A   Scattered Clouds
5:15 AM 70.0 °F 66.7 °F 89% 29.68 in 10.0 mi SSE 9.2 mph - N/A   Scattered Clouds
5:36 AM 70.2 °F 67.1 °F 90% 29.67 in 10.0 mi South 10.4 mph - N/A   Scattered Clouds
5:55 AM 71.1 °F 67.5 °F 88% 29.66 in 10.0 mi South 9.2 mph - N/A   Mostly Cloudy
6:15 AM 71.2 °F 67.5 °F 88% 29.65 in 10.0 mi South 11.5 mph - N/A   Mostly Cloudy
6:36 AM 71.6 °F 67.6 °F 87% 29.65 in 10.0 mi South 10.4 mph - N/A   Mostly Cloudy
6:55 AM 73.4 °F 68.7 °F 85% 29.65 in 10.0 mi South 10.4 mph 17.3 mph N/A   Overcast
7:15 AM 78.3 °F 70.0 °F 76% 29.64 in 10.0 mi SW 16.1 mph 25.3 mph N/A   Overcast
7:36 AM 79.2 °F 69.1 °F 71% 29.66 in 10.0 mi WNW 19.6 mph 29.9 mph N/A   Overcast
7:55 AM 70.9 °F 66.4 °F 86% 29.69 in 4.0 mi North 12.7 mph 20.7 mph 0.11 in Rain Heavy Rain
8:16 AM 68.2 °F 65.8 °F 92% 29.68 in 5.0 mi North 5.8 mph - 0.05 in Rain Light Rain
8:36 AM 68.4 °F 66.2 °F 93% 29.67 in 7.0 mi North 6.9 mph - 0.05 in   Overcast
8:55 AM 68.5 °F 66.0 °F 92% 29.66 in 10.0 mi Calm Calm - 0.05 in   Overcast
9:16 AM 69.6 °F 66.9 °F 91% 29.69 in 10.0 mi South 5.8 mph - N/A   Overcast
9:36 AM 68.7 °F 66.4 °F 92% 29.68 in 1.0 mi SW 12.7 mph 19.6 mph 0.22 in Rain Heavy Rain
9:55 AM 69.3 °F 66.2 °F 90% 29.63 in 10.0 mi SSW 5.8 mph - 0.40 in Rain Light Rain
10:16 AM 70.2 °F 67.3 °F 91% 29.63 in 10.0 mi South 6.9 mph - N/A   Scattered Clouds
10:36 AM 71.2 °F 68.4 °F 91% 29.63 in 10.0 mi South 8.1 mph - N/A   Mostly Cloudy
10:55 AM 73.4 °F 69.6 °F 88% 29.62 in 10.0 mi SSW 10.4 mph 19.6 mph N/A   Mostly Cloudy
11:16 AM 73.4 °F 70.3 °F 90% 29.63 in 10.0 mi SW 13.8 mph 21.9 mph N/A   Scattered Clouds
11:36 AM 75.7 °F 70.7 °F 84% 29.63 in 10.0 mi SW 18.4 mph 25.3 mph N/A   Mostly Cloudy
11:55 AM 75.6 °F 70.3 °F 84% 29.62 in 10.0 mi WSW 17.3 mph 23.0 mph N/A   Overcast
12:16 PM 76.1 °F 70.3 °F 82% 29.62 in 10.0 mi WSW 17.3 mph 23.0 mph N/A   Mostly Cloudy
12:36 PM 77.4 °F 70.5 °F 79% 29.62 in 10.0 mi WSW 12.7 mph 20.7 mph N/A   Scattered Clouds
12:55 PM 76.1 °F 70.2 °F 82% 29.63 in 10.0 mi WSW 15.0 mph 26.5 mph N/A   Mostly Cloudy
1:16 PM 76.8 °F 70.3 °F 80% 29.63 in 10.0 mi WSW 16.1 mph 27.6 mph N/A   Overcast
1:35 PM 76.3 °F 70.3 °F 82% 29.64 in 10.0 mi WSW 11.5 mph 20.7 mph N/A   Mostly Cloudy
1:55 PM 77.0 °F 70.5 °F 80% 29.63 in 10.0 mi SW 13.8 mph 25.3 mph N/A   Scattered Clouds
2:16 PM 77.9 °F 70.7 °F 78% 29.64 in 10.0 mi SW 11.5 mph 20.7 mph N/A   Clear
2:36 PM 79.0 °F 71.1 °F 77% 29.64 in 10.0 mi WSW 12.7 mph 21.9 mph N/A   Clear
2:55 PM 76.3 °F 70.2 °F 81% 29.65 in 10.0 mi WSW 16.1 mph 29.9 mph N/A   Scattered Clouds
3:16 PM 70.9 °F 65.3 °F 82% 29.66 in 2.0 mi WNW 19.6 mph 32.2 mph 0.10 in Rain Light Rain
3:35 PM 69.8 °F 67.1 °F 91% 29.65 in 2.0 mi West 6.9 mph 16.1 mph 0.38 in Rain Light Rain
3:55 PM 72.1 °F 68.7 °F 89% 29.66 in 10.0 mi West 9.2 mph 16.1 mph 0.38 in   Overcast
4:16 PM 72.5 °F 68.9 °F 88% 29.66 in 10.0 mi WSW 5.8 mph - N/A   Overcast
4:35 PM 73.8 °F 69.6 °F 87% 29.66 in 10.0 mi WSW 8.1 mph - N/A   Mostly Cloudy
4:56 PM 73.9 °F 70.3 °F 88% 29.67 in 10.0 mi WSW 6.9 mph - N/A   Mostly Cloudy
5:16 PM 74.3 °F 70.7 °F 88% 29.67 in 10.0 mi WSW 6.9 mph - N/A   Overcast
5:35 PM 75.0 °F 71.4 °F 89% 29.68 in 10.0 mi West 9.2 mph - N/A   Overcast
5:56 PM 77.2 °F 68.7 °F 75% 29.68 in 10.0 mi NW 8.1 mph - N/A   Scattered Clouds
6:16 PM 77.2 °F 65.8 °F 68% 29.68 in 10.0 mi NNW 9.2 mph - N/A   Scattered Clouds
6:35 PM 76.5 °F 62.2 °F 61% 29.68 in 10.0 mi NNW 10.4 mph 18.4 mph N/A   Scattered Clouds
6:56 PM 75.6 °F 59.7 °F 58% 29.69 in 10.0 mi NW 9.2 mph 18.4 mph N/A   Clear
7:15 PM 75.2 °F 60.1 °F 59% 29.70 in 10.0 mi NNW 8.1 mph - N/A   Clear
7:36 PM 72.9 °F 60.1 °F 64% 29.71 in 10.0 mi NW 5.8 mph - N/A   Mostly Cloudy
7:56 PM 73.8 °F 60.1 °F 62% 29.71 in 10.0 mi NNW 8.1 mph - N/A   Mostly Cloudy
8:15 PM 72.5 °F 59.2 °F 63% 29.72 in 10.0 mi NNW 6.9 mph - N/A   Scattered Clouds
8:36 PM 72.1 °F 58.1 °F 61% 29.72 in 10.0 mi NNW 5.8 mph - N/A   Mostly Cloudy
8:56 PM 70.2 °F 59.0 °F 68% 29.73 in 10.0 mi NNW 5.8 mph - N/A   Mostly Cloudy
9:15 PM 69.6 °F 58.6 °F 68% 29.73 in 10.0 mi NNW 5.8 mph - N/A   Scattered Clouds
9:36 PM 68.2 °F 58.3 °F 71% 29.74 in 10.0 mi WNW 3.5 mph - N/A   Clear
9:55 PM 66.2 °F 61.0 °F 83% 29.74 in 10.0 mi West 3.5 mph - N/A   Clear
10:15 PM 65.3 °F 61.0 °F 86% 29.75 in 10.0 mi West 4.6 mph - N/A   Clear
10:36 PM 65.8 °F 60.1 °F 82% 29.75 in 10.0 mi West 4.6 mph - N/A   Clear
10:55 PM 68.5 °F 58.6 °F 71% 29.74 in 10.0 mi West 6.9 mph - N/A   Clear
11:16 PM 68.7 °F 58.5 °F 70% 29.74 in 10.0 mi West 6.9 mph - N/A   Clear
11:36 PM 68.0 °F 59.0 °F 73% 29.74 in 10.0 mi West 8.1 mph - N/A   Clear
11:55 PM 68.9 °F 59.9 °F 73% 29.74 in 10.0 mi West 8.1 mph - N/A   Clear